{"data":{"norad_id":57527,"intl_designator":"2023-115G","name":"STARLINK-30250","alt_names":[],"object_type":"PAYLOAD","status":"ACTIVE","operator":null,"country":"US","launch_date":"2023-08-08","launch_site_code":"AFWTR","launch_vehicle":null,"mission":null,"orbit_class":"UNKNOWN","rcs_meters":null,"size_class":null,"mass_kg":null,"dimensions":null,"purposes":["comms"],"wikipedia_slug":null,"has_3d_model":false,"image_url":null,"decayed_at":null,"tle_current":{"epoch":"2026-05-24T19:54:28.767168Z","epoch_age_seconds":100150,"freshness":"FRESH","line1":"1 57527U 23115G   26144.82949962 -.00000112  00000+0  54332-5 0  9990","line2":"2 57527  43.0009 291.7904 0000717 284.8486  75.2286 15.27572829154896","mean_motion":15.27572829,"eccentricity":7.17e-5,"inclination_deg":43.0009,"raan_deg":291.7904,"arg_perigee_deg":284.8486,"mean_anomaly_deg":75.2286,"bstar":5.4332e-6,"rev_number":15489,"period_min":94.267191237139,"perigee_km":482.57862009473,"apogee_km":483.56251726008,"semimajor_km":6861.2075686774,"source":"CELESTRAK","updated_at":"2026-05-25T13:38:18.333015Z"}}}